• In Czech Republic
  • List of Countries
  • For 7 days
  • Water Temperature
  • Satellite Maps
  • Weather Map
  • Weather Widgets
  • user-avatar
    Login

    Hourly Weather Bogorodskoe

    Today, 23 October, Tuesday

    Time Temperature Precipitation Wind Pressure Humidity
    00:00 -2°C° 0 mm 6 mps 744 mmHg 83%
    01:00 -1°C° 0 mm 6 mps 743 mmHg 83%
    02:00 -2°C° 0 mm 6 mps 743 mmHg 84%
    03:00 -2°C° 0 mm 6 mps 743 mmHg 85%
    04:00 -2°C° 0 mm 6 mps 742 mmHg 85%
    05:00 -2°C° 0 mm 6 mps 742 mmHg 86%
    06:00 -2°C° 0 mm 6 mps 742 mmHg 87%
    07:00 -2°C° 0 mm 6 mps 741 mmHg 88%
    08:00 -1°C° 0 mm 6 mps 741 mmHg 85%
    09:00 -1°C° 0 mm 6 mps 741 mmHg 83%
    10:00 +1°C° 0 mm 6 mps 741 mmHg 81%
    11:00 +1°C° 0.1 mm 6 mps 740 mmHg 82%
    12:00 +2°C° 0.1 mm 6 mps 740 mmHg 83%
    13:00 +2°C° 0.1 mm 6 mps 740 mmHg 84%
    14:00 +2°C° 0.1 mm 6 mps 740 mmHg 84%
    15:00 +3°C° 0.1 mm 6 mps 739 mmHg 83%
    16:00 +3°C° 0.1 mm 6 mps 739 mmHg 82%
    17:00 +3°C° 0 mm 6 mps 739 mmHg 82%
    18:00 +3°C° 0 mm 6 mps 739 mmHg 81%
    19:00 +3°C° 0 mm 6 mps 738 mmHg 80%
    20:00 +3°C° 0 mm 6 mps 738 mmHg 78%
    21:00 +3°C° 0 mm 6 mps 738 mmHg 76%
    22:00 +3°C° 0 mm 6 mps 737 mmHg 74%
    23:00 +3°C° 0 mm 6 mps 737 mmHg 73%

    Tomorrow, 24 October, Wednesday

    Time Temperature Precipitation Wind Pressure Humidity
    00:00 +3°C° 0 mm 6 mps 736 mmHg 73%
    01:00 +3°C° 0 mm 6 mps 736 mmHg 72%
    02:00 +3°C° 0.1 mm 5 mps 736 mmHg 76%
    03:00 +3°C° 0.1 mm 5 mps 735 mmHg 79%
    04:00 +3°C° 0.1 mm 5 mps 735 mmHg 82%
    05:00 +3°C° 0 mm 5 mps 735 mmHg 83%
    06:00 +3°C° 0 mm 5 mps 734 mmHg 84%
    07:00 +3°C° 0 mm 5 mps 734 mmHg 85%
    08:00 +5°C° 0.1 mm 5 mps 734 mmHg 85%
    09:00 +5°C° 0.1 mm 5 mps 734 mmHg 86%
    10:00 +6°C° 0.1 mm 5 mps 734 mmHg 87%
    11:00 +6°C° 0.1 mm 5 mps 734 mmHg 87%
    12:00 +7°C° 0.1 mm 5 mps 734 mmHg 87%
    13:00 +7°C° 0.1 mm 4 mps 734 mmHg 88%
    14:00 +7°C° 0.1 mm 4 mps 734 mmHg 89%
    15:00 +7°C° 0.1 mm 4 mps 734 mmHg 90%
    16:00 +7°C° 0.1 mm 4 mps 734 mmHg 91%
    17:00 +7°C° 0.3 mm 4 mps 734 mmHg 91%
    18:00 +7°C° 0.3 mm 5 mps 734 mmHg 90%
    19:00 +7°C° 0.3 mm 5 mps 734 mmHg 90%
    20:00 +7°C° 0.1 mm 5 mps 734 mmHg 90%
    21:00 +7°C° 0.1 mm 5 mps 734 mmHg 90%
    22:00 +7°C° 0.1 mm 5 mps 734 mmHg 90%
    23:00 +7°C° 0 mm 4 mps 734 mmHg 91%

    Day after tomorrow, 25 October, Thursday

    Time Temperature Precipitation Wind Pressure Humidity
    00:00 +7°C° 0 mm 4 mps 734 mmHg 92%
    01:00 +6°C° 0 mm 4 mps 734 mmHg 93%
    02:00 +6°C° 0 mm 4 mps 734 mmHg 93%
    03:00 +6°C° 0 mm 4 mps 734 mmHg 94%
    04:00 +7°C° 0 mm 3 mps 734 mmHg 94%
    05:00 +6°C° 0 mm 4 mps 734 mmHg 94%
    06:00 +6°C° 0 mm 4 mps 734 mmHg 94%
    07:00 +6°C° 0 mm 4 mps 734 mmHg 94%
    08:00 +7°C° 0 mm 4 mps 734 mmHg 90%
    09:00 +8°C° 0 mm 5 mps 734 mmHg 85%
    10:00 +9°C° 0 mm 5 mps 734 mmHg 81%
    11:00 +9°C° 0 mm 5 mps 734 mmHg 78%
    12:00 +10°C° 0 mm 5 mps 734 mmHg 76%
    13:00 +10°C° 0 mm 5 mps 734 mmHg 73%
    14:00 +10°C° 0.3 mm 5 mps 733 mmHg 75%
    15:00 +11°C° 0.3 mm 4 mps 733 mmHg 78%
    16:00 +10°C° 0.3 mm 4 mps 733 mmHg 80%
    17:00 +11°C° 0 mm 4 mps 733 mmHg 77%
    18:00 +10°C° 0 mm 5 mps 732 mmHg 73%
    19:00 +10°C° 0 mm 5 mps 732 mmHg 70%
    20:00 +10°C° 0 mm 5 mps 732 mmHg 69%
    21:00 +10°C° 0 mm 6 mps 732 mmHg 67%
    22:00 +10°C° 0 mm 6 mps 731 mmHg 65%
    23:00 +10°C° 0 mm 6 mps 731 mmHg 64%

    26 October, Friday

    Time Temperature Precipitation Wind Pressure Humidity
    00:00 +10°C° 0 mm 6 mps 730 mmHg 62%
    01:00 +10°C° 0 mm 6 mps 730 mmHg 61%
    02:00 +10°C° 0 mm 6 mps 730 mmHg 61%
    03:00 +10°C° 0 mm 6 mps 729 mmHg 61%
    04:00 +10°C° 0 mm 5 mps 729 mmHg 61%
    05:00 +10°C° 0 mm 5 mps 729 mmHg 62%
    06:00 +10°C° 0 mm 5 mps 728 mmHg 63%
    07:00 +9°C° 0 mm 5 mps 728 mmHg 64%
    08:00 +10°C° 0.1 mm 5 mps 728 mmHg 63%
    09:00 +10°C° 0.1 mm 5 mps 728 mmHg 63%
    10:00 +10°C° 0.1 mm 5 mps 728 mmHg 62%
    11:00 +10°C° 0.9 mm 5 mps 728 mmHg 69%
    12:00 +10°C° 0.9 mm 4 mps 728 mmHg 76%
    13:00 +8°C° 0.9 mm 4 mps 728 mmHg 83%
    14:00 +8°C° 0.5 mm 4 mps 728 mmHg 84%
    15:00 +7°C° 0.5 mm 4 mps 729 mmHg 84%
    16:00 +8°C° 0.5 mm 3 mps 729 mmHg 85%
    17:00 +7°C° 0 mm 3 mps 730 mmHg 85%
    18:00 +5°C° 0 mm 4 mps 730 mmHg 85%
    19:00 +5°C° 0 mm 4 mps 731 mmHg 85%
    20:00 +5°C° 0 mm 4 mps 731 mmHg 85%
    21:00 +4°C° 0 mm 3 mps 732 mmHg 85%
    22:00 +4°C° 0 mm 3 mps 732 mmHg 85%
    23:00 +4°C° 0 mm 3 mps 733 mmHg 86%

    27 October, Saturday

    Time Temperature Precipitation Wind Pressure Humidity
    00:00 +3°C° 0 mm 3 mps 733 mmHg 87%
    01:00 +3°C° 0 mm 3 mps 733 mmHg 88%
    02:00 +3°C° 0 mm 3 mps 733 mmHg 88%
    03:00 +3°C° 0 mm 2 mps 733 mmHg 89%
    04:00 +3°C° 0 mm 2 mps 734 mmHg 89%
    05:00 +2°C° 0 mm 3 mps 734 mmHg 89%
    06:00 +2°C° 0 mm 3 mps 734 mmHg 90%
    07:00 +2°C° 0 mm 3 mps 734 mmHg 91%
    08:00 +2°C° 0 mm 3 mps 734 mmHg 86%
    09:00 +1°C° 0 mm 4 mps 734 mmHg 80%
    10:00 +3°C° 0 mm 4 mps 734 mmHg 75%
    11:00 +3°C° 0 mm 4 mps 734 mmHg 74%
    12:00 +2°C° 0 mm 5 mps 734 mmHg 73%
    13:00 +2°C° 0 mm 5 mps 734 mmHg 72%
    14:00 +3°C° 0.1 mm 4 mps 735 mmHg 71%
    15:00 +1°C° 0.1 mm 4 mps 735 mmHg 70%
    16:00 +1°C° 0.1 mm 4 mps 735 mmHg 69%
    17:00 +1°C° 0 mm 4 mps 736 mmHg 70%
    18:00 0°C° 0 mm 4 mps 736 mmHg 72%
    19:00 0°C° 0 mm 4 mps 737 mmHg 73%
    20:00 0°C° 0 mm 4 mps 737 mmHg 74%
    21:00 0°C° 0 mm 4 mps 737 mmHg 75%
    22:00 -1°C° 0 mm 4 mps 738 mmHg 76%
    23:00 -1°C° 0 mm 4 mps 738 mmHg 79%

    28 October, Sunday

    Time Temperature Precipitation Wind Pressure Humidity
    00:00 -1°C° 0 mm 4 mps 739 mmHg 82%
    01:00 -1°C° 0 mm 4 mps 739 mmHg 85%
    02:00 -1°C° 0 mm 4 mps 739 mmHg 83%
    03:00 -2°C° 0 mm 4 mps 740 mmHg 81%
    04:00 -2°C° 0 mm 4 mps 740 mmHg 80%
    05:00 -2°C° 0 mm 4 mps 741 mmHg 78%
    06:00 -1°C° 0 mm 4 mps 741 mmHg 75%
    07:00 -1°C° 0 mm 4 mps 742 mmHg 73%
    08:00 -1°C° 0 mm 5 mps 742 mmHg 71%
    09:00 0°C° 0 mm 5 mps 742 mmHg 69%
    10:00 0°C° 0 mm 5 mps 742 mmHg 67%
    11:00 +1°C° 0 mm 6 mps 742 mmHg 68%
    12:00 +1°C° 0 mm 6 mps 742 mmHg 70%
    13:00 +2°C° 0 mm 6 mps 742 mmHg 71%
    14:00 +2°C° 0.4 mm 6 mps 742 mmHg 74%
    15:00 +2°C° 0.4 mm 6 mps 741 mmHg 76%
    16:00 +2°C° 0.4 mm 6 mps 741 mmHg 79%
    17:00 +2°C° 1.1 mm 7 mps 741 mmHg 81%
    18:00 +2°C° 1.1 mm 7 mps 741 mmHg 83%
    19:00 +3°C° 1.1 mm 7 mps 740 mmHg 85%
    20:00 +3°C° 0.9 mm 7 mps 740 mmHg 87%
    21:00 +3°C° 0.9 mm 6 mps 740 mmHg 89%
    22:00 +3°C° 0.9 mm 6 mps 740 mmHg 90%
    23:00 +3°C° 0.7 mm 5 mps 740 mmHg 91%

    29 October, Monday

    Time Temperature Precipitation Wind Pressure Humidity
    00:00 +3°C° 0.7 mm 5 mps 741 mmHg 92%
    01:00 +5°C° 0.7 mm 4 mps 741 mmHg 93%
    02:00 +5°C° 0.8 mm 4 mps 741 mmHg 94%
    03:00 +5°C° 0.8 mm 4 mps 741 mmHg 94%
    04:00 +5°C° 0.8 mm 4 mps 741 mmHg 95%
    05:00 +5°C° 1.3 mm 5 mps 741 mmHg 94%
    06:00 +6°C° 1.3 mm 5 mps 741 mmHg 93%
    07:00 +5°C° 1.3 mm 6 mps 741 mmHg 91%
    08:00 +5°C° 0.3 mm 7 mps 741 mmHg 90%
    09:00 +6°C° 0.3 mm 8 mps 741 mmHg 88%
    10:00 +6°C° 0.3 mm 8 mps 741 mmHg 87%
    11:00 +6°C° 0.5 mm 8 mps 741 mmHg 86%
    12:00 +6°C° 0.5 mm 8 mps 741 mmHg 85%
    13:00 +6°C° 0.5 mm 8 mps 741 mmHg 83%
    14:00 +6°C° 0.6 mm 8 mps 741 mmHg 83%
    15:00 +6°C° 0.6 mm 8 mps 741 mmHg 82%
    16:00 +6°C° 0.6 mm 8 mps 741 mmHg 81%
    17:00 +7°C° 0.2 mm 8 mps 741 mmHg 82%
    18:00 +7°C° 0.2 mm 8 mps 741 mmHg 82%
    19:00 +9°C° 0.2 mm 8 mps 741 mmHg 83%
    20:00 +9°C° 0 mm 8 mps 741 mmHg 82%
    21:00 +8°C° 0 mm 9 mps 741 mmHg 82%
    22:00 +8°C° 0 mm 9 mps 741 mmHg 82%
    23:00 +7°C° 0.1 mm 9 mps 742 mmHg 79%
    Show more